Location: Radomski Observatory
(40.2854°N, 79.5145°W)
Time: 19:47:00
(UTC-05:00)

Amateur Radio Satellites - All Passes

Search period start: 27 February 2017 19:17
Search period end: 28 February 2017 19:17
Location: Radomski Observatory, 40.2854°N, 79.5145°W

Satellite Date Start Highest point End Downlink Frequencies (MHz)
Time Altitude Azimuth
YUBILEINY 27 Feb 19:17:39 19:19:48 11° 56° (NE) 19:21:56 435.215
UWE-3 27 Feb 19:22:39 19:26:43 35° 70° (ENE) 19:30:55 435.000/436.395/437.385
CUTE-I 27 Feb 19:30:04 19:31:42 11° 271° (W) 19:33:20 437.470
ZACube-1 27 Feb 19:37:57 19:41:52 31° 69° (ENE) 19:45:53 437.345
CUTE 1.7 + AOD 2 27 Feb 19:41:45 19:45:44 37° 262° (W) 19:49:44 437.475
HO-68 27 Feb 20:09:29 20:15:47 33° 264° (W) 20:22:09 435.675
AAUSAT CUBESAT 2 27 Feb 20:15:19 20:19:19 47° 261° (W) 20:23:21 437.432
AO-73 27 Feb 20:24:11 20:28:40 88° 71° (ENE) 20:33:15 145.935
STRAND 1 27 Feb 20:26:14 20:31:06 43° 290° (WNW) 20:35:55 437.568
CUBEBUG 2 27 Feb 20:27:28 20:31:21 29° 265° (W) 20:35:22 437.445
Oscar 11 27 Feb 20:27:45 20:32:06 85° 73° (ENE) 20:36:29 .
SEEDS 27 Feb 20:35:51 20:38:17 15° 268° (W) 20:40:44 437.485
SO-50 27 Feb 20:49:45 20:53:25 23° 112° (ESE) 20:57:03 436.795
NO-84 27 Feb 20:51:07 20:52:06 11° 14° (NNE) 20:53:06 435.350 FM
UWE-3 27 Feb 20:59:49 21:03:15 21° 267° (W) 21:06:46 435.000/436.395/437.385
YUBILEINY 27 Feb 21:10:04 21:18:42 61° 78° (ENE) 21:27:15 435.215
ZACube-1 27 Feb 21:14:28 21:18:08 25° 266° (W) 21:21:52 437.345
LO-87 27 Feb 21:21:36 21:22:30 11° 65° (ENE) 21:23:25 145.935 - 145.965
RS-15 27 Feb 21:21:52 21:30:53 22° 350° (N) 21:39:56 29.354- 29.394
DELFI C3 27 Feb 21:24:12 21:28:08 68° 258° (WSW) 21:32:04 145.870
O/OREOS (USA 219) 27 Feb 21:28:10 21:31:31 21° 101° (ESE) 21:34:54 437.305
TIGRISAT 27 Feb 21:34:00 21:37:29 20° 93° (E) 21:40:53 435.000
UNISAT 6 27 Feb 21:34:25 21:38:03 22° 93° (E) 21:41:38 437.425
FO-29 27 Feb 21:53:58 21:59:45 24° 89° (E) 22:05:05 435.910
PRISM 27 Feb 22:10:01 22:14:03 62° 285° (WNW) 22:18:05 437.425
NO-84 27 Feb 22:27:14 22:30:49 30° 33° (NNE) 22:34:36 435.350 FM
SO-50 27 Feb 22:29:14 22:33:40 41° 308° (NW) 22:38:02 436.795
DX 1 27 Feb 22:51:17 22:51:55 10° 61° (ENE) 22:52:34 434.975-435.025
ESTCUBE 1 27 Feb 22:51:19 22:55:48 73° 76° (ENE) 23:00:19 437.505/2401.250
LO-87 27 Feb 22:52:08 22:55:32 45° 261° (W) 22:58:58 145.935 - 145.965
SPROUT 27 Feb 22:53:23 22:56:27 20° 67° (ENE) 22:59:32 437.525
VELOX 1 27 Feb 23:05:13 23:09:08 33° 70° (ENE) 23:13:05 145.980
O/OREOS (USA 219) 27 Feb 23:06:34 23:10:40 35° 298° (WNW) 23:14:49 437.305
YUBILEINY 27 Feb 23:07:52 23:14:50 28° 278° (W) 23:21:48 435.215
50 SAT 27 Feb 23:09:44 23:12:21 20° 69° (ENE) 23:14:59 437.505
TIGRISAT 27 Feb 23:09:54 23:14:17 40° 289° (WNW) 23:18:36 435.000
UNISAT 6 27 Feb 23:10:32 23:14:50 36° 290° (WNW) 23:19:04 437.425
DUCHIFAT 1 27 Feb 23:21:52 23:25:08 21° 94° (E) 23:28:21 145.980
EO-79 27 Feb 23:35:25 23:39:23 36° 98° (E) 23:43:19 145.935-145.965
FO-29 27 Feb 23:37:53 23:45:21 64° 289° (WNW) 23:52:03 435.910
RS-15 27 Feb 23:39:00 23:49:16 29° 26° (NNE) 23:59:16 29.354- 29.394
PCSat 27 Feb 23:42:24 23:46:33 22° 47° (NE) 23:50:40 145.827
AIST 2D 27 Feb 23:43:47 23:47:21 88° 107° (ESE) 23:50:52 435.315
NANOSAT C BR1 27 Feb 23:50:28 23:54:38 49° 100° (E) 23:58:46 145.865
POLYITAN 1 27 Feb 23:53:38 23:57:54 59° 101° (E) 00:02:07 437.675
QB50P2 27 Feb 23:56:43 00:01:00 70° 101° (E) 00:05:16 145.880/145.840
NO-84 28 Feb 00:04:40 00:08:37 43° 229° (SW) 00:12:45 435.350 FM
BUGSAT 1 28 Feb 00:07:21 00:10:46 23° 95° (E) 00:14:11 437.445
DX 1 28 Feb 00:23:09 00:27:27 76° 255° (WSW) 00:31:49 434.975-435.025
SPROUT 28 Feb 00:28:13 00:32:07 35° 263° (W) 00:36:04 437.525
UKube-1 28 Feb 00:29:30 00:33:48 89° 56° (NE) 00:38:07 .
Oscar 19 28 Feb 00:36:29 00:39:20 15° 91° (E) 00:42:11 437.125/150
VELOX 1 28 Feb 00:42:18 00:45:38 21° 266° (W) 00:49:00 145.980
50 SAT 28 Feb 00:42:38 00:45:22 21° 264° (W) 00:48:07 437.505
DUCHIFAT 1 28 Feb 00:57:01 01:00:49 32° 290° (WNW) 01:04:35 145.980
EO-79 28 Feb 01:11:48 01:14:53 20° 293° (WNW) 01:17:58 145.935-145.965
PCSat 28 Feb 01:25:00 01:30:22 62° 246° (WSW) 01:35:41 145.827
FO-29 28 Feb 01:25:43 01:28:45 13° 309° (NW) 01:31:41 435.910
NANOSAT C BR1 28 Feb 01:27:32 01:29:55 15° 296° (WNW) 01:32:19 145.865
POLYITAN 1 28 Feb 01:31:15 01:33:10 13° 297° (WNW) 01:35:04 437.675
QB50P2 28 Feb 01:35:01 01:36:11 11° 298° (WNW) 01:37:23 145.880/145.840
ITUPSAT 1 28 Feb 01:39:51 01:44:11 35° 69° (ENE) 01:48:32 437.325
MOZHAYETS 4 28 Feb 01:42:09 01:44:17 13° 62° (ENE) 01:46:25
BUGSAT 1 28 Feb 01:42:26 01:46:06 29° 291° (WNW) 01:49:46 437.445
Gurwin Techsat 1B 28 Feb 01:42:52 01:47:46 37° 97° (E) 01:52:39 435.225
BEESAT 28 Feb 01:44:21 01:48:47 39° 70° (ENE) 01:53:15 436.000
RS-15 28 Feb 01:52:03 02:04:26 73° 55° (NE) 02:16:15 29.354- 29.394
Oscar 19 28 Feb 02:14:00 02:19:04 63° 287° (WNW) 02:24:06 437.125/150
AO-85 28 Feb 02:33:22 02:36:00 15° 111° (ESE) 02:38:32 145.980
AO-7 28 Feb 02:40:34 02:46:44 22° 93° (E) 02:52:50 .
CUBESAT XI-V 28 Feb 02:50:40 02:51:37 11° 61° (ENE) 02:52:33 437.345
ITAMSAT 1 28 Feb 02:54:24 02:58:59 30° 96° (E) 03:03:33 435.822/435.867
MOZHAYETS 4 28 Feb 03:16:15 03:20:51 67° 259° (W) 03:25:30
ITUPSAT 1 28 Feb 03:18:09 03:22:03 24° 265° (W) 03:25:59 437.325
BEESAT 28 Feb 03:23:01 03:26:40 21° 266° (W) 03:30:20 436.000
Gurwin Techsat 1B 28 Feb 03:23:05 03:27:33 28° 294° (WNW) 03:32:00 435.225
KKS-1 28 Feb 03:25:57 03:30:03 39° 71° (ENE) 03:34:11 437.445
STARS 28 Feb 03:51:47 03:55:41 33° 70° (ENE) 03:59:38 437.465
RS-15 28 Feb 04:05:42 04:15:51 33° 257° (WSW) 04:25:41 29.354- 29.394
AO-85 28 Feb 04:11:35 04:16:03 54° 305° (NW) 04:20:13 145.980
CUBESAT XI-V 28 Feb 04:23:38 04:28:17 83° 257° (WSW) 04:32:56 437.345
AO-7 28 Feb 04:31:54 04:40:13 76° 291° (WNW) 04:48:27 .
ITAMSAT 1 28 Feb 04:33:47 04:38:24 33° 293° (WNW) 04:43:00 435.822/435.867
M-CUBED/EXP-1 PRIME 28 Feb 04:54:05 04:57:18 61° 253° (WSW) 05:00:33 437.505
KKS-1 28 Feb 05:03:41 05:06:45 18° 266° (W) 05:09:50 437.445
BEESAT 3 28 Feb 05:09:56 05:13:31 37° 116° (ESE) 05:17:11 437.485
SO-50 28 Feb 05:21:05 05:24:27 20° 44° (NE) 05:27:48 436.795
XW-2D 28 Feb 05:22:41 05:23:46 11° 91° (E) 05:24:50 145.860 - 145.880
XW-2B 28 Feb 05:27:19 05:28:56 12° 91° (E) 05:30:32 145.730 - 145.750
STARS 28 Feb 05:28:44 05:32:05 21° 265° (W) 05:35:27 437.465
XW-2C 28 Feb 05:35:25 05:37:49 16° 93° (E) 05:40:11 145.795 - 145.815
NUDT-PHONESAT 28 Feb 05:36:44 05:38:31 13° 92° (E) 05:40:16 437.300
Tancredo 1 28 Feb 05:40:51 05:41:56 11° 129° (SE) 05:43:01 437.200
LilacSat-2 28 Feb 05:54:49 05:58:10 28° 96° (E) 06:01:29 437.200
BEESAT 2 28 Feb 05:54:49 05:58:36 47° 117° (ESE) 06:02:27 435.950
STRAND 1 28 Feb 06:03:00 06:07:26 31° 67° (ENE) 06:11:55 437.568
CUTE-I 28 Feb 06:03:31 06:08:26 35° 97° (E) 06:13:17 437.470
AO-7 28 Feb 06:26:40 06:31:37 18° 311° (NW) 06:36:34 .
DOVE 4 28 Feb 06:32:53 06:37:43 90° 285° (WNW) 06:42:49 437.250
KAITUO 1B 28 Feb 06:37:48 06:41:35 80° 103° (ESE) 06:45:18 145.475/437.950
XW-2F 28 Feb 06:47:52 06:51:38 62° 284° (WNW) 06:55:21 145.980 - 146.000
BEESAT 3 28 Feb 06:48:16 06:51:15 20° 313° (NW) 06:54:16 437.485
XW-2D 28 Feb 06:54:32 06:58:14 47° 286° (WNW) 07:01:52 145.860 - 145.880
ISS 28 Feb 06:56:46 07:00:02 69° 140° (SE) 07:03:19 437.550
XW-2B 28 Feb 06:59:43 07:03:21 42° 287° (WNW) 07:06:56 145.730 - 145.750
SO-50 28 Feb 07:00:50 07:05:12 51° 243° (WSW) 07:09:31 436.795
XW-2C 28 Feb 07:08:39 07:12:06 33° 288° (WNW) 07:15:31 145.795 - 145.815
NUDT-PHONESAT 28 Feb 07:09:06 07:12:37 39° 287° (WNW) 07:16:06 437.300
Tancredo 1 28 Feb 07:14:31 07:17:45 74° 324° (NW) 07:21:00 437.200
CUTE 1.7 + AOD 2 28 Feb 07:26:54 07:30:48 36° 97° (E) 07:34:40 437.475
LilacSat-2 28 Feb 07:29:31 07:32:15 19° 292° (WNW) 07:34:58 437.200
XW-2A 28 Feb 07:31:56 07:35:23 66° 101° (E) 07:38:48 145.665 - 145.685
BEESAT 2 28 Feb 07:33:53 07:36:37 18° 315° (NW) 07:39:23 435.950
HO-68 28 Feb 07:36:34 07:43:30 51° 101° (E) 07:50:24 435.675
O/OREOS (USA 219) 28 Feb 07:37:25 07:41:43 38° 63° (ENE) 07:46:01 437.305
STRAND 1 28 Feb 07:41:59 07:46:32 31° 264° (W) 07:51:07 437.568
CUTE-I 28 Feb 07:43:43 07:48:20 30° 293° (WNW) 07:52:56 437.470
AAUSAT CUBESAT 2 28 Feb 07:58:09 08:01:35 25° 95° (E) 08:05:00 437.432
FO-29 28 Feb 08:08:00 08:10:56 13° 51° (NE) 08:13:54 435.910
DOVE 4 28 Feb 08:13:45 08:14:45 11° 298° (WNW) 08:15:45 437.250
AO-73 28 Feb 08:13:47 08:16:54 18° 92° (E) 08:19:58 145.935
Oscar 11 28 Feb 08:16:40 08:19:22 16° 92° (E) 08:22:02 .
CUBEBUG 2 28 Feb 08:17:54 08:22:38 63° 100° (E) 08:27:16 437.445
SEEDS 28 Feb 08:17:55 08:22:06 87° 283° (WNW) 08:26:15 437.485
YUBILEINY 28 Feb 08:20:22 08:23:22 12° 74° (ENE) 08:26:21 435.215
TIGRISAT 28 Feb 08:32:34 08:35:31 17° 64° (ENE) 08:38:31 435.000
UNISAT 6 28 Feb 08:33:02 08:36:12 19° 65° (ENE) 08:39:24 437.425
ISS 28 Feb 08:34:11 08:36:46 21° 338° (NNW) 08:39:22 437.550
UWE-3 28 Feb 08:48:32 08:53:13 83° 102° (ESE) 08:57:47 435.000/436.395/437.385
Tancredo 1 28 Feb 08:52:16 08:54:28 17° 342° (NNW) 08:56:40 437.200
PRISM 28 Feb 08:58:20 09:02:23 84° 76° (ENE) 09:06:29 437.425
ZACube-1 28 Feb 09:02:16 09:06:49 69° 101° (E) 09:11:14 437.345
DELFI C3 28 Feb 09:03:01 09:05:19 15° 92° (E) 09:07:36 145.870
CUTE 1.7 + AOD 2 28 Feb 09:03:26 09:06:22 19° 293° (WNW) 09:09:17 437.475
O/OREOS (USA 219) 28 Feb 09:17:30 09:20:50 20° 259° (W) 09:24:10 437.305
HO-68 28 Feb 09:24:49 09:30:54 32° 298° (WNW) 09:37:00 435.675
AAUSAT CUBESAT 2 28 Feb 09:33:37 09:36:57 24° 291° (WNW) 09:40:16 437.432
FO-29 28 Feb 09:47:09 09:54:15 60° 70° (ENE) 10:01:55 435.910
AO-73 28 Feb 09:49:03 09:53:18 40° 288° (WNW) 09:57:26 145.935
Oscar 11 28 Feb 09:51:35 09:55:40 42° 288° (WNW) 09:59:44 .
CUBEBUG 2 28 Feb 09:56:06 09:58:40 15° 297° (WNW) 10:01:13 437.445
TIGRISAT 28 Feb 10:07:25 10:11:46 48° 261° (W) 10:16:16 435.000
UNISAT 6 28 Feb 10:08:14 10:12:32 43° 262° (W) 10:16:58 437.425
YUBILEINY 28 Feb 10:09:42 10:18:26 71° 94° (E) 10:27:11 435.215
ISS 28 Feb 10:12:58 10:14:12 12° 358° (N) 10:15:27 437.550
DUCHIFAT 1 28 Feb 10:13:55 10:16:23 15° 65° (ENE) 10:18:51 145.980
AIST 2D 28 Feb 10:17:51 10:20:54 27° 71° (ENE) 10:23:57 435.315
LO-87 28 Feb 10:20:49 10:22:44 14° 93° (E) 10:24:37 145.935 - 145.965
EO-79 28 Feb 10:27:28 10:30:56 25° 69° (ENE) 10:34:27 145.935-145.965
UWE-3 28 Feb 10:27:50 10:28:55 11° 299° (WNW) 10:30:00 435.000/436.395/437.385
Tancredo 1 28 Feb 10:30:38 10:31:46 11° 3° (N) 10:32:54 437.200
DELFI C3 28 Feb 10:36:37 10:40:15 37° 288° (WNW) 10:43:52 145.870
ZACube-1 28 Feb 10:40:39 10:42:28 12° 298° (WNW) 10:44:15 437.345
NANOSAT C BR1 28 Feb 10:41:57 10:45:44 33° 70° (ENE) 10:49:34 145.865
POLYITAN 1 28 Feb 10:45:27 10:49:26 40° 72° (ENE) 10:53:27 437.675
ESTCUBE 1 28 Feb 10:45:32 10:48:15 16° 92° (E) 10:50:57 437.505/2401.250
QB50P2 28 Feb 10:48:29 10:52:32 47° 73° (ENE) 10:56:39 145.880/145.840
BUGSAT 1 28 Feb 10:57:25 10:59:51 15° 65° (ENE) 11:02:17 437.445
AO-85 28 Feb 11:04:43 11:06:14 12° 41° (NE) 11:07:44 145.980
FO-29 28 Feb 11:33:37 11:39:40 28° 269° (W) 11:46:07 435.910
DUCHIFAT 1 28 Feb 11:47:37 11:51:39 46° 261° (W) 11:55:45 145.980
ISS 28 Feb 11:49:20 11:51:42 18° 19° (NNE) 11:54:03 437.550
AIST 2D 28 Feb 11:51:49 11:54:08 16° 267° (W) 11:56:29 435.315
Oscar 19 28 Feb 11:52:30 11:56:24 22° 65° (ENE) 12:00:17 437.125/150
LO-87 28 Feb 11:53:00 11:56:17 34° 288° (WNW) 11:59:34 145.935 - 145.965
EO-79 28 Feb 12:03:03 12:06:36 26° 264° (W) 12:10:12 145.935-145.965
Tancredo 1 28 Feb 12:06:23 12:08:59 22° 23° (NNE) 12:11:34 437.200
50 SAT 28 Feb 12:07:26 12:10:15 23° 96° (E) 12:13:02 437.505
YUBILEINY 28 Feb 12:09:09 12:16:01 25° 293° (WNW) 12:22:56 435.215
DX 1 28 Feb 12:12:36 12:15:42 19° 94° (E) 12:18:45 434.975-435.025
SPROUT 28 Feb 12:14:03 12:18:05 38° 98° (E) 12:22:05 437.525
UKube-1 28 Feb 12:18:17 12:20:49 15° 93° (E) 12:23:20 .
NANOSAT C BR1 28 Feb 12:18:26 12:21:31 20° 266° (W) 12:24:37 145.865
ESTCUBE 1 28 Feb 12:21:00 12:25:17 46° 288° (WNW) 12:29:33 437.505/2401.250
POLYITAN 1 28 Feb 12:22:40 12:25:23 17° 267° (W) 12:28:08 437.675
QB50P2 28 Feb 12:26:18 12:28:35 14° 268° (W) 12:30:53 145.880/145.840
BUGSAT 1 28 Feb 12:30:58 12:34:50 42° 261° (W) 12:38:46 437.445
VELOX 1 28 Feb 12:31:19 12:35:44 73° 102° (ESE) 12:40:10 145.980
AO-85 28 Feb 12:43:12 12:47:07 77° 240° (WSW) 12:51:06 145.980
Gurwin Techsat 1B 28 Feb 13:03:17 13:08:28 56° 72° (ENE) 13:13:40 435.225
ISS 28 Feb 13:25:15 13:28:33 86° 29° (NNE) 13:31:50 437.550
BEESAT 3 28 Feb 13:27:22 13:30:30 21° 47° (NE) 13:33:36 437.485
Oscar 19 28 Feb 13:30:30 13:35:24 45° 261° (W) 13:40:20 437.125/150
AO-7 28 Feb 13:38:55 13:46:02 33° 58° (ENE) 13:53:09 .
50 SAT 28 Feb 13:40:43 13:43:13 19° 291° (WNW) 13:45:43 437.505
Tancredo 1 28 Feb 13:42:17 13:45:27 59° 221° (SW) 13:48:37 437.200
DX 1 28 Feb 13:47:58 13:51:59 37° 289° (WNW) 13:56:00 434.975-435.025
SPROUT 28 Feb 13:50:41 13:53:42 19° 294° (WNW) 13:56:44 437.525
UKube-1 28 Feb 13:52:56 13:57:04 45° 288° (WNW) 14:01:11 .
VELOX 1 28 Feb 14:10:14 14:11:35 11° 298° (WNW) 14:12:55 145.980
ITAMSAT 1 28 Feb 14:11:40 14:16:35 45° 70° (ENE) 14:21:33 435.822/435.867
BEESAT 2 28 Feb 14:13:08 14:16:34 26° 49° (NE) 14:19:59 435.950
PCSat 28 Feb 14:24:42 14:28:17 18° 105° (ESE) 14:31:53 145.827
Gurwin Techsat 1B 28 Feb 14:45:14 14:48:45 18° 268° (W) 14:52:16 435.225
BEESAT 3 28 Feb 15:04:30 15:08:13 37° 244° (WSW) 15:11:53 437.485
MOZHAYETS 4 28 Feb 15:12:05 15:16:05 29° 96° (E) 15:20:03
ITUPSAT 1 28 Feb 15:17:54 15:22:44 88° 108° (ESE) 15:27:30 437.325
BEESAT 28 Feb 15:22:06 15:26:54 82° 285° (WNW) 15:31:40 436.000
NO-84 28 Feb 15:23:17 15:25:59 29° 129° (SE) 15:28:53 435.350 FM
AO-7 28 Feb 15:30:07 15:38:19 60° 256° (WSW) 15:46:35 .
BEESAT 2 28 Feb 15:50:47 15:54:20 29° 246° (WSW) 15:57:50 435.950
ITAMSAT 1 28 Feb 15:52:16 15:56:14 22° 266° (W) 16:00:13 435.822/435.867
PCSat 28 Feb 16:05:48 16:11:09 60° 302° (WNW) 16:16:32 145.827
RS-15 28 Feb 16:13:53 16:25:00 49° 109° (ESE) 16:36:31 29.354- 29.394
CUBESAT XI-V 28 Feb 16:21:09 16:24:55 25° 95° (E) 16:28:40 437.345
LilacSat-2 28 Feb 16:37:13 16:39:24 15° 66° (ENE) 16:41:36 437.200
MOZHAYETS 4 28 Feb 16:49:18 16:53:09 27° 292° (WNW) 16:56:58
KKS-1 28 Feb 16:53:14 16:57:44 86° 99° (E) 17:02:13 437.445
ITUPSAT 1 28 Feb 16:58:46 16:59:47 11° 301° (WNW) 17:00:49 437.325
NO-84 28 Feb 17:00:49 17:03:36 26° 328° (NNW) 17:06:36 435.350 FM
STARS 28 Feb 17:17:06 17:21:33 70° 103° (ESE) 17:25:58 437.465
KAITUO 1B 28 Feb 17:17:17 17:20:42 33° 72° (ENE) 17:24:09 145.475/437.950
CUTE-I 28 Feb 17:24:40 17:29:51 54° 72° (ENE) 17:35:05 437.470
XW-2F 28 Feb 17:27:49 17:31:34 54° 74° (ENE) 17:35:20 145.980 - 146.000
XW-2D 28 Feb 17:34:39 17:38:29 71° 76° (ENE) 17:42:20 145.860 - 145.880
DOVE 4 28 Feb 17:38:16 17:42:23 84° 77° (ENE) 17:46:38 437.250
XW-2B 28 Feb 17:39:47 17:43:37 80° 78° (ENE) 17:47:30 145.730 - 145.750
NUDT-PHONESAT 28 Feb 17:47:19 17:51:05 81° 77° (ENE) 17:54:52 437.300
XW-2C 28 Feb 17:48:36 17:52:26 78° 259° (W) 17:56:19 145.795 - 145.815
PCSat 28 Feb 17:53:58 17:55:42 11° 322° (NW) 17:57:27 145.827
CUBESAT XI-V 28 Feb 17:58:15 18:02:17 31° 291° (WNW) 18:06:19 437.345
XW-2A 28 Feb 18:03:29 18:06:00 20° 69° (ENE) 18:08:32 145.665 - 145.685
HO-68 28 Feb 18:04:49 18:11:12 36° 63° (ENE) 18:17:35 435.675
M-CUBED/EXP-1 PRIME 28 Feb 18:06:01 18:09:56 86° 289° (WNW) 18:14:10 437.505
LilacSat-2 28 Feb 18:09:41 18:13:20 40° 262° (W) 18:17:01 437.200
CUTE 1.7 + AOD 2 28 Feb 18:19:09 18:22:38 25° 69° (ENE) 18:26:08 437.475
RS-15 28 Feb 18:25:41 18:37:23 55° 312° (NW) 18:49:32 29.354- 29.394
AAUSAT CUBESAT 2 28 Feb 18:48:26 18:51:06 17° 66° (ENE) 18:53:46 437.432
KAITUO 1B 28 Feb 18:52:24 18:54:49 16° 267° (W) 18:57:14 145.475/437.950
STARS 28 Feb 18:55:40 18:57:18 12° 298° (WNW) 18:58:55 437.465
CUTE-I 28 Feb 19:06:34 19:10:13 19° 268° (W) 19:13:54 437.470
SEEDS 28 Feb 19:08:33 19:12:42 58° 75° (ENE) 19:16:52 437.485
AO-73 28 Feb 19:09:21 19:11:48 15° 64° (ENE) 19:14:17 145.935
Oscar 11 28 Feb 19:11:55 19:13:51 13° 63° (ENE) 19:15:46 .
